HST
1 20580U 90037B 24293.89948899 .00017336 00000-0 76441-3 0 9993
2 20580 28.4684 228.1409 0002766 319.3748 40.6638 15.20361907696272
ISS (ZARYA)
1 25544U 98067A 24294.37837902 .00022545 00000-0 39975-3 0 9994
2 25544 51.6398 55.2996 0009428 88.4474 343.7900 15.50110631477960
CXO
1 25867U 99040B 24292.14899531 .00000890 00000-0 00000-0 0 9996
2 25867 43.8911 143.9268 8763916 302.7950 0.4259 0.37813126 15024